Dodge City, KS

2:07 PM CDT on May 29, 2017 (GMT -0500)
Dodge City Regional

Weather History for KDDC - December, 2013

Change the Weather History Date:

Wednesday, December 25, 2013

  Actual Average Record
Temperature  
Mean Temperature 32 °F -  
Max Temperature 46 °F 39 °F 74 °F (1950)
Min Temperature 19 °F 18 °F -13 °F (1879)
Degree Days  
Heating Degree Days 32    
Moisture  
Dew Point 23 °F    
Average Humidity 67    
Maximum Humidity 92    
Minimum Humidity 27    
Precipitation  
Precipitation 0.00 in - - ()
Sea Level Pressure  
Sea Level Pressure 30.40 in    
Wind  
Wind Speed 10 mph (NW)    
Max Wind Speed 18 mph    
Max Gust Speed -    
Visibility 10 miles    
Events      
Averages and records for this station are not official NWS values.
T = Trace of Precipitation, MM = Missing Value Source: NWS Daily Summary

Daily Weather History Graph

Daily Weather History Graph

Search for Another Location

Airport or City:

Trip Planner

Search our weather history database for the weather conditions in past years. The results will help you decide how hot, cold, wet, or windy it might be!

Date:

Astronomy

Dec. 25, 2013 Rise Set
Actual Time 7:53 AM CST 5:26 PM CST
Civil Twilight 7:24 AM CST 5:56 PM CST
Nautical Twilight 6:51 AM CST 6:29 PM CST
Astronomical Twilight 6:19 AM CST 7:01 PM CST
Moon 12:28 AM CST (12/25) 12:26 PM CST (12/25)
Length of Visible Light 10h 32m
Length of Day
9h 33m
Waning Gibbous, 48% of the Moon is Illuminated
Dec 25
Waning Gibbous
Jan 1
New
Jan 7
First Quarter
Jan 15
Full
Jan 23
Last Quarter

Hourly Weather History & Observations

Time (CST) Temp. Windchill Dew Point Humidity Pressure Visibility Wind Dir Wind Speed Gust Speed Precip Events Conditions
12:38 AM 37.0 °F 29.8 °F 30.9 °F 79% 30.26 in 10.0 mi North 10.4 mph - N/A   Overcast
12:52 AM 36.0 °F 29.0 °F 30.9 °F 82% 30.32 in 10.0 mi North 9.2 mph - N/A   Overcast
1:31 AM 36.0 °F 27.5 °F 30.0 °F 79% 30.28 in 10.0 mi North 12.7 mph - N/A   Overcast
1:52 AM 35.1 °F 26.9 °F 30.0 °F 82% 30.33 in 10.0 mi North 11.5 mph - N/A   Mostly Cloudy
2:52 AM 33.1 °F 24.9 °F 28.9 °F 85% 30.34 in 10.0 mi North 10.4 mph - N/A   Partly Cloudy
3:52 AM 30.9 °F 24.3 °F 27.0 °F 85% 30.36 in 10.0 mi NNW 6.9 mph - N/A   Clear
4:52 AM 25.0 °F 14.8 °F 23.0 °F 92% 30.38 in 10.0 mi NW 10.4 mph - N/A   Clear
5:52 AM 23.0 °F 13.1 °F 19.9 °F 88% 30.40 in 10.0 mi NW 9.2 mph - N/A   Clear
6:52 AM 19.9 °F 10.1 °F 18.0 °F 92% 30.42 in 10.0 mi NW 8.1 mph - N/A   Clear
7:52 AM 21.0 °F 9.3 °F 17.1 °F 85% 30.43 in 10.0 mi WNW 11.5 mph - N/A   Clear
8:52 AM 25.0 °F 16.3 °F 21.0 °F 85% 30.44 in 10.0 mi NW 8.1 mph - N/A   Clear
9:52 AM 30.9 °F 20.2 °F 24.1 °F 76% 30.45 in 10.0 mi NW 15.0 mph - N/A   Clear
10:52 AM 37.0 °F 28.9 °F 27.0 °F 67% 30.45 in 10.0 mi WNW 12.7 mph - N/A   Clear
11:52 AM 39.0 °F 29.6 °F 24.1 °F 55% 30.43 in 10.0 mi NW 18.4 mph - N/A   Clear
12:52 PM 42.1 °F 34.5 °F 21.9 °F 45% 30.41 in 10.0 mi NNW 15.0 mph - N/A   Clear
1:52 PM 44.1 °F 37.4 °F 21.9 °F 42% 30.38 in 10.0 mi North 13.8 mph - N/A   Clear
2:52 PM 45.0 °F 39.7 °F 21.9 °F 40% 30.38 in 10.0 mi North 10.4 mph - N/A   Clear
3:52 PM 45.0 °F 40.6 °F 21.9 °F 40% 30.38 in 10.0 mi NNW 8.1 mph - N/A   Clear
4:52 PM 42.1 °F 37.7 °F 21.9 °F 45% 30.40 in 10.0 mi NNW 6.9 mph - N/A   Clear
5:52 PM 34.0 °F 28.8 °F 21.9 °F 61% 30.43 in 10.0 mi North 5.8 mph - N/A   Clear
6:52 PM 32.0 °F 26.4 °F 19.0 °F 59% 30.45 in 10.0 mi North 5.8 mph - N/A   Clear
7:52 PM 30.0 °F - 18.0 °F 61% 30.45 in 10.0 mi Calm Calm - N/A   Clear
8:52 PM 28.0 °F 21.7 °F 18.0 °F 66% 30.44 in 10.0 mi SSW 5.8 mph - N/A   Clear
9:52 PM 27.0 °F 19.5 °F 19.0 °F 72% 30.43 in 10.0 mi SW 6.9 mph - N/A   Clear
10:52 PM 26.1 °F 17.6 °F 18.0 °F 71% 30.41 in 10.0 mi SSW 8.1 mph - N/A   Clear
11:52 PM 26.1 °F 17.6 °F 18.0 °F 71% 30.39 in 10.0 mi SSW 8.1 mph - N/A   Clear